| time (UTC) | temp C | wind direction | speed KPH | gust KPH | rain 1hr cm | rain 24hr cm | rain mn cm | humidity % | barometer mb |
| 20260510054304 | 6 | 354 | 3.2 | 3.2 | 0.00 | 0.00 | 0.00 | 52 | 1019.0 |
| 20260510053804 | 6 | 342 | 4.8 | 4.8 | 0.00 | 0.00 | 0.00 | 50 | 1019.0 |
| 20260510053254 | 6 | 355 | 6.4 | 8.0 | 0.00 | 0.00 | 0.00 | 50 | 1019.1 |
| 20260510052750 | 6 | 342 | 6.4 | 8.0 | 0.00 | 0.00 | 0.00 | 51 | 1018.7 |
| 20260510052246 | 6 | 9 | 1.6 | 3.2 | 0.00 | 0.00 | 0.00 | 52 | 1018.6 |
| 20260510051742 | 5 | 348 | 3.2 | 3.2 | 0.00 | 0.00 | 0.00 | 52 | 1018.6 |
| 20260510051239 | 5 | 353 | 3.2 | 3.2 | 0.00 | 0.00 | 0.00 | 53 | 1018.6 |
| 20260510050736 | 5 | 2 | 3.2 | 3.2 | 0.00 | 0.00 | 0.00 | 54 | 1018.3 |
| 20260510050233 | 5 | 99 | 0.0 | 0.0 | 0.00 | 0.00 | 0.00 | 54 | 1018.2 |
| 20260510045730 | 5 | 152 | 1.6 | 1.6 | 0.00 | 0.08 | 0.08 | 53 | 1018.2 |
| 20260510045226 | 6 | 177 | 1.6 | 1.6 | 0.00 | 0.08 | 0.08 | 52 | 1018.0 |
| 20260510044723 | 5 | 168 | 1.6 | 1.6 | 0.00 | 0.08 | 0.08 | 52 | 1018.0 |
| 20260510044221 | 5 | 68 | 0.0 | 0.0 | 0.00 | 0.08 | 0.08 | 54 | 1017.9 |
| 20260510043716 | 5 | 70 | 0.0 | 0.0 | 0.00 | 0.08 | 0.08 | 53 | 1017.9 |
| 20260510043213 | 5 | 68 | 0.0 | 0.0 | 0.00 | 0.08 | 0.08 | 52 | 1017.8 |
| 20260510042710 | 5 | 68 | 0.0 | 0.0 | 0.00 | 0.08 | 0.08 | 53 | 1017.6 |
| 20260510042206 | 6 | 68 | 0.0 | 0.0 | 0.00 | 0.08 | 0.08 | 51 | 1017.6 |
| 20260510041703 | 6 | 56 | 0.0 | 0.0 | 0.00 | 0.08 | 0.08 | 50 | 1017.5 |
| 20260510041201 | 6 | 56 | 0.0 | 0.0 | 0.00 | 0.08 | 0.08 | 51 | 1017.7 |
| 20260510040657 | 5 | 59 | 1.6 | 1.6 | 0.00 | 0.08 | 0.08 | 53 | 1017.6 |
| 20260510040154 | 5 | 208 | 0.0 | 0.0 | 0.00 | 0.08 | 0.08 | 54 | 1017.7 |
| 20260510035650 | 5 | 208 | 0.0 | 0.0 | 0.00 | 0.08 | 0.08 | 53 | 1017.5 |
| 20260510035145 | 6 | 210 | 1.6 | 1.6 | 0.00 | 0.08 | 0.08 | 51 | 1017.5 |
| 20260510034642 | 7 | 50 | 0.0 | 0.0 | 0.00 | 0.08 | 0.08 | 47 | 1017.7 |
| 20260510034139 | 7 | 52 | 1.6 | 1.6 | 0.00 | 0.08 | 0.08 | 47 | 1017.7 |
| 20260510033635 | 8 | 47 | 1.6 | 1.6 | 0.00 | 0.08 | 0.08 | 46 | 1017.4 |
| 20260510033133 | 8 | 43 | 1.6 | 1.6 | 0.00 | 0.08 | 0.08 | 46 | 1017.5 |
| 20260510032630 | 8 | 47 | 1.6 | 1.6 | 0.00 | 0.08 | 0.08 | 46 | 1017.4 |
| 20260510032125 | 8 | 32 | 3.2 | 3.2 | 0.00 | 0.08 | 0.08 | 45 | 1017.3 |
| 20260510031620 | 8 | 37 | 1.6 | 1.6 | 0.00 | 0.08 | 0.08 | 45 | 1017.4 |
| 20260510031117 | 8 | 27 | 3.2 | 3.2 | 0.00 | 0.08 | 0.08 | 45 | 1017.3 |
| 20260510030611 | 8 | 25 | 3.2 | 3.2 | 0.00 | 0.08 | 0.08 | 44 | 1017.1 |
| 20260510030109 | 8 | 23 | 4.8 | 4.8 | 0.00 | 0.08 | 0.08 | 44 | 1017.3 |
| 20260510025606 | 8 | 37 | 3.2 | 3.2 | 0.00 | 0.08 | 0.08 | 44 | 1017.3 |
| 20260510025103 | 8 | 359 | 3.2 | 3.2 | 0.00 | 0.08 | 0.08 | 44 | 1017.4 |
| 20260510024600 | 8 | 44 | 1.6 | 1.6 | 0.00 | 0.08 | 0.08 | 44 | 1017.2 |
| 20260510024056 | 8 | 23 | 3.2 | 3.2 | 0.00 | 0.08 | 0.08 | 45 | 1017.2 |
| 20260510023547 | 8 | 24 | 3.2 | 3.2 | 0.00 | 0.08 | 0.08 | 46 | 1017.0 |
| 20260510023045 | 8 | 35 | 3.2 | 3.2 | 0.00 | 0.08 | 0.08 | 46 | 1017.1 |
| 20260510022543 | 8 | 37 | 1.6 | 1.6 | 0.00 | 0.08 | 0.08 | 45 | 1017.0 |
| 20260510022038 | 8 | 29 | 0.0 | 1.6 | 0.00 | 0.08 | 0.08 | 45 | 1017.0 |
| 20260510021535 | 9 | 26 | 3.2 | 3.2 | 0.00 | 0.08 | 0.08 | 45 | 1016.7 |
| 20260510021032 | 10 | 21 | 3.2 | 3.2 | 0.00 | 0.08 | 0.08 | 44 | 1016.4 |
| 20260510020527 | 10 | 21 | 1.6 | 1.6 | 0.00 | 0.08 | 0.08 | 43 | 1016.7 |
| 20260510020023 | 10 | 350 | 3.2 | 3.2 | 0.00 | 0.08 | 0.08 | 41 | 1016.6 |
| 20260510015518 | 11 | 17 | 3.2 | 3.2 | 0.00 | 0.08 | 0.08 | 42 | 1016.3 |
| 20260510015014 | 11 | 355 | 3.2 | 3.2 | 0.00 | 0.08 | 0.08 | 40 | 1016.4 |
| 20260510014511 | 11 | 322 | 4.8 | 4.8 | 0.00 | 0.08 | 0.08 | 40 | 1016.3 |
| 20260510014008 | 12 | 316 | 3.2 | 3.2 | 0.00 | 0.08 | 0.08 | 39 | 1016.2 |
| 20260510013502 | 12 | 321 | 4.8 | 4.8 | 0.00 | 0.08 | 0.08 | 38 | 1016.3 |
| 20260510012959 | 12 | 334 | 8.0 | 9.7 | 0.00 | 0.08 | 0.08 | 36 | 1016.2 |
| 20260510012453 | 13 | 316 | 8.0 | 9.7 | 0.00 | 0.08 | 0.08 | 35 | 1016.2 |
| 20260510011949 | 13 | 353 | 9.7 | 12.9 | 0.00 | 0.08 | 0.08 | 34 | 1016.2 |
| 20260510011444 | 13 | 320 | 9.7 | 12.9 | 0.00 | 0.08 | 0.08 | 34 | 1016.2 |
| 20260510010940 | 13 | 320 | 8.0 | 11.3 | 0.00 | 0.08 | 0.08 | 33 | 1016.2 |
| 20260510010437 | 13 | 321 | 8.0 | 11.3 | 0.00 | 0.08 | 0.08 | 33 | 1016.0 |
| 20260510005933 | 14 | 351 | 8.0 | 9.7 | 0.00 | 0.08 | 0.08 | 34 | 1016.1 |
| 20260510005424 | 14 | 334 | 9.7 | 11.3 | 0.00 | 0.08 | 0.08 | 33 | 1016.0 |
| 20260510004922 | 14 | 306 | 11.3 | 14.5 | 0.00 | 0.08 | 0.08 | 33 | 1015.7 |
| 20260510004419 | 14 | 308 | 14.5 | 16.1 | 0.00 | 0.08 | 0.08 | 32 | 1015.8 |
| 20260510003917 | 15 | 299 | 12.9 | 16.1 | 0.00 | 0.08 | 0.08 | 32 | 1015.8 |
| 20260510003414 | 15 | 331 | 12.9 | 16.1 | 0.00 | 0.08 | 0.08 | 32 | 1015.9 |
| 20260510002913 | 15 | 322 | 12.9 | 14.5 | 0.00 | 0.08 | 0.08 | 33 | 1015.7 |
| 20260510002410 | 15 | 313 | 16.1 | 16.1 | 0.00 | 0.08 | 0.08 | 32 | 1015.9 |
| 20260510001906 | 15 | 303 | 16.1 | 20.9 | 0.00 | 0.08 | 0.08 | 33 | 1015.7 |
| 20260510001404 | 15 | 301 | 14.5 | 17.7 | 0.00 | 0.08 | 0.08 | 33 | 1015.9 |
| 20260510000901 | 15 | 324 | 9.7 | 12.9 | 0.00 | 0.08 | 0.08 | 33 | 1015.7 |
| 20260510000358 | 15 | 359 | 12.9 | 16.1 | 0.00 | 0.08 | 0.08 | 32 | 1015.7 |
| 20260509235854 | 15 | 352 | 11.3 | 14.5 | 0.00 | 0.08 | 0.08 | 33 | 1015.9 |
| 20260509235350 | 15 | 323 | 11.3 | 12.9 | 0.00 | 0.08 | 0.08 | 33 | 1015.6 |
| 20260509234847 | 15 | 321 | 14.5 | 20.9 | 0.00 | 0.08 | 0.08 | 33 | 1015.9 |
| 20260509234343 | 15 | 332 | 9.7 | 11.3 | 0.00 | 0.08 | 0.08 | 35 | 1015.7 |
| 20260509233842 | 15 | 285 | 14.5 | 17.7 | 0.00 | 0.08 | 0.08 | 33 | 1015.6 |
| 20260509233334 | 15 | 283 | 14.5 | 16.1 | 0.00 | 0.08 | 0.08 | 34 | 1015.6 |
| 20260509232829 | 15 | 289 | 11.3 | 12.9 | 0.00 | 0.08 | 0.08 | 36 | 1015.7 |
| 20260509232327 | 15 | 277 | 12.9 | 14.5 | 0.00 | 0.08 | 0.08 | 36 | 1015.5 |
| 20260509231823 | 15 | 266 | 19.3 | 22.5 | 0.00 | 0.08 | 0.08 | 35 | 1015.5 |
| 20260509231320 | 15 | 311 | 9.7 | 11.3 | 0.00 | 0.08 | 0.08 | 36 | 1015.7 |
| 20260509230818 | 15 | 307 | 11.3 | 14.5 | 0.00 | 0.08 | 0.08 | 34 | 1015.6 |
| 20260509230315 | 15 | 305 | 14.5 | 16.1 | 0.00 | 0.08 | 0.08 | 34 | 1015.6 |
| 20260509225809 | 15 | 316 | 12.9 | 16.1 | 0.00 | 0.08 | 0.08 | 35 | 1015.5 |
| 20260509225307 | 15 | 320 | 11.3 | 12.9 | 0.00 | 0.08 | 0.08 | 35 | 1015.8 |
| 20260509224803 | 15 | 313 | 16.1 | 22.5 | 0.00 | 0.08 | 0.08 | 34 | 1015.5 |
| 20260509224259 | 15 | 347 | 6.4 | 8.0 | 0.00 | 0.08 | 0.08 | 34 | 1015.3 |
| 20260509223756 | 15 | 327 | 16.1 | 20.9 | 0.00 | 0.08 | 0.08 | 34 | 1015.6 |
| 20260509223253 | 15 | 342 | 20.9 | 24.1 | 0.00 | 0.08 | 0.08 | 33 | 1015.5 |
| 20260509222749 | 15 | 320 | 16.1 | 17.7 | 0.00 | 0.08 | 0.08 | 34 | 1015.6 |
| 20260509222245 | 15 | 315 | 14.5 | 16.1 | 0.00 | 0.08 | 0.08 | 34 | 1015.3 |
| 20260509221740 | 15 | 343 | 11.3 | 14.5 | 0.00 | 0.08 | 0.08 | 35 | 1015.7 |
| 20260509221237 | 15 | 298 | 14.5 | 16.1 | 0.00 | 0.08 | 0.08 | 35 | 1015.7 |
| 20260509220733 | 15 | 349 | 12.9 | 16.1 | 0.00 | 0.08 | 0.08 | 35 | 1015.6 |
| 20260509220230 | 15 | 338 | 12.9 | 16.1 | 0.00 | 0.08 | 0.08 | 35 | 1015.8 |
| 20260509215725 | 15 | 336 | 16.1 | 22.5 | 0.00 | 0.08 | 0.08 | 36 | 1015.5 |
| 20260509215221 | 15 | 324 | 14.5 | 16.1 | 0.00 | 0.08 | 0.08 | 36 | 1015.8 |
| 20260509214719 | 15 | 328 | 8.0 | 11.3 | 0.00 | 0.08 | 0.08 | 37 | 1015.6 |
| 20260509214216 | 14 | 327 | 14.5 | 17.7 | 0.00 | 0.08 | 0.08 | 37 | 1015.8 |
| 20260509213713 | 14 | 300 | 8.0 | 9.7 | 0.00 | 0.08 | 0.08 | 37 | 1015.7 |
| 20260509213208 | 15 | 301 | 12.9 | 14.5 | 0.00 | 0.08 | 0.08 | 37 | 1015.8 |
| 20260509212706 | 14 | 0 | 12.9 | 16.1 | 0.00 | 0.08 | 0.08 | 38 | 1015.7 |
| 20260509212202 | 15 | 354 | 19.3 | 25.7 | 0.00 | 0.08 | 0.08 | 39 | 1015.9 |
| 20260509211658 | 14 | 338 | 6.4 | 8.0 | 0.00 | 0.08 | 0.08 | 41 | 1015.7 |
| 20260509211155 | 15 | 298 | 14.5 | 16.1 | 0.00 | 0.08 | 0.08 | 41 | 1016.0 |
| 20260509210652 | 15 | 280 | 14.5 | 17.7 | 0.00 | 0.08 | 0.08 | 39 | 1016.0 |
| 20260509210144 | 14 | 323 | 12.9 | 14.5 | 0.00 | 0.08 | 0.08 | 39 | 1015.8 |
| 20260509205639 | 13 | 345 | 20.9 | 22.5 | 0.00 | 0.08 | 0.08 | 39 | 1015.8 |
| 20260509205138 | 13 | 336 | 17.7 | 20.9 | 0.00 | 0.08 | 0.08 | 40 | 1015.8 |
| 20260509204629 | 13 | 311 | 14.5 | 20.9 | 0.00 | 0.08 | 0.08 | 41 | 1016.0 |
| 20260509204126 | 14 | 306 | 12.9 | 16.1 | 0.00 | 0.08 | 0.08 | 42 | 1015.9 |
| 20260509203622 | 13 | 324 | 20.9 | 25.7 | 0.00 | 0.08 | 0.08 | 41 | 1016.0 |
| 20260509203121 | 13 | 291 | 19.3 | 20.9 | 0.00 | 0.08 | 0.08 | 41 | 1016.0 |
| 20260509202620 | 13 | 286 | 9.7 | 11.3 | 0.00 | 0.08 | 0.08 | 44 | 1016.3 |
| 20260509202115 | 13 | 276 | 8.0 | 9.7 | 0.00 | 0.08 | 0.08 | 42 | 1016.2 |
| 20260509201610 | 13 | 336 | 24.1 | 27.4 | 0.00 | 0.08 | 0.08 | 40 | 1015.7 |
| 20260509201108 | 13 | 328 | 16.1 | 17.7 | 0.00 | 0.08 | 0.08 | 40 | 1016.1 |
| 20260509200603 | 13 | 280 | 17.7 | 24.1 | 0.00 | 0.08 | 0.08 | 41 | 1016.1 |
| 20260509200059 | 13 | 317 | 20.9 | 24.1 | 0.00 | 0.08 | 0.08 | 41 | 1016.2 |
| 20260509195555 | 13 | 18 | 8.0 | 9.7 | 0.00 | 0.08 | 0.08 | 44 | 1016.0 |
| 20260509195050 | 13 | 340 | 19.3 | 20.9 | 0.00 | 0.08 | 0.08 | 42 | 1016.3 |
| 20260509194549 | 13 | 280 | 16.1 | 20.9 | 0.00 | 0.08 | 0.08 | 43 | 1016.2 |
| 20260509194047 | 13 | 303 | 14.5 | 17.7 | 0.00 | 0.08 | 0.08 | 45 | 1015.9 |
| 20260509193542 | 12 | 279 | 6.4 | 8.0 | 0.00 | 0.08 | 0.08 | 44 | 1015.9 |
| 20260509193039 | 13 | 306 | 22.5 | 33.8 | 0.00 | 0.08 | 0.08 | 41 | 1016.1 |
| 20260509192536 | 13 | 14 | 11.3 | 14.5 | 0.00 | 0.08 | 0.08 | 47 | 1016.2 |
| 20260509192031 | 13 | 342 | 16.1 | 17.7 | 0.00 | 0.08 | 0.08 | 45 | 1016.0 |
| 20260509191525 | 12 | 320 | 4.8 | 4.8 | 0.00 | 0.08 | 0.08 | 44 | 1016.1 |
| 20260509191021 | 12 | 267 | 11.3 | 12.9 | 0.00 | 0.08 | 0.08 | 49 | 1016.0 |
| 20260509190518 | 12 | 348 | 14.5 | 16.1 | 0.00 | 0.08 | 0.08 | 46 | 1016.1 |
| 20260509190016 | 12 | 350 | 6.4 | 9.7 | 0.00 | 0.08 | 0.08 | 46 | 1015.9 |
| 20260509185513 | 12 | 302 | 16.1 | 17.7 | 0.00 | 0.08 | 0.08 | 47 | 1016.0 |
| 20260509185009 | 12 | 5 | 6.4 | 9.7 | 0.00 | 0.08 | 0.08 | 42 | 1016.1 |
| 20260509184508 | 12 | 302 | 11.3 | 12.9 | 0.00 | 0.08 | 0.08 | 48 | 1016.2 |
| 20260509184004 | 12 | 296 | 11.3 | 12.9 | 0.00 | 0.08 | 0.08 | 47 | 1016.3 |
| 20260509183500 | 12 | 323 | 4.8 | 8.0 | 0.00 | 0.08 | 0.08 | 46 | 1016.3 |
| 20260509182956 | 12 | 325 | 12.9 | 17.7 | 0.00 | 0.08 | 0.08 | 48 | 1016.0 |
| 20260509182452 | 12 | 226 | 4.8 | 4.8 | 0.00 | 0.08 | 0.08 | 51 | 1016.2 |
| 20260509181949 | 12 | 223 | 8.0 | 11.3 | 0.00 | 0.08 | 0.08 | 49 | 1016.1 |
| 20260509181447 | 11 | 4 | 9.7 | 11.3 | 0.00 | 0.08 | 0.08 | 50 | 1016.2 |
| 20260509180945 | 11 | 17 | 6.4 | 8.0 | 0.00 | 0.08 | 0.08 | 46 | 1016.2 |
| 20260509180440 | 11 | 7 | 11.3 | 16.1 | 0.00 | 0.08 | 0.08 | 50 | 1016.2 |
| 20260509175936 | 11 | 301 | 12.9 | 14.5 | 0.00 | 0.08 | 0.08 | 47 | 1016.2 |
| 20260509175427 | 11 | 305 | 11.3 | 16.1 | 0.00 | 0.08 | 0.08 | 48 | 1016.3 |
| 20260509174923 | 11 | 281 | 8.0 | 11.3 | 0.00 | 0.08 | 0.08 | 48 | 1016.3 |
| 20260509174420 | 11 | 345 | 3.2 | 3.2 | 0.00 | 0.08 | 0.08 | 48 | 1016.1 |
| 20260509173915 | 10 | 304 | 11.3 | 12.9 | 0.00 | 0.08 | 0.08 | 51 | 1016.2 |
| 20260509173410 | 11 | 278 | 17.7 | 20.9 | 0.00 | 0.08 | 0.08 | 50 | 1016.2 |
| 20260509172906 | 11 | 324 | 8.0 | 9.7 | 0.00 | 0.08 | 0.08 | 50 | 1016.2 |
| 20260509172403 | 11 | 309 | 14.5 | 17.7 | 0.00 | 0.08 | 0.08 | 52 | 1016.1 |
| 20260509171859 | 10 | 312 | 9.7 | 11.3 | 0.00 | 0.08 | 0.08 | 51 | 1016.1 |
| 20260509171355 | 11 | 21 | 6.4 | 8.0 | 0.00 | 0.08 | 0.08 | 52 | 1016.1 |
| 20260509170852 | 10 | 336 | 11.3 | 14.5 | 0.00 | 0.08 | 0.08 | 53 | 1016.1 |
| 20260509170347 | 10 | 320 | 9.7 | 12.9 | 0.00 | 0.08 | 0.08 | 55 | 1016.3 |
| 20260509165841 | 10 | 313 | 8.0 | 9.7 | 0.00 | 0.08 | 0.08 | 54 | 1016.1 |
| 20260509165331 | 10 | 346 | 9.7 | 11.3 | 0.00 | 0.08 | 0.08 | 53 | 1016.2 |
| 20260509164827 | 10 | 253 | 11.3 | 16.1 | 0.00 | 0.08 | 0.08 | 52 | 1016.1 |
| 20260509164324 | 10 | 342 | 12.9 | 14.5 | 0.00 | 0.08 | 0.08 | 51 | 1016.0 |
| 20260509163820 | 10 | 298 | 8.0 | 9.7 | 0.00 | 0.08 | 0.08 | 56 | 1015.9 |
| 20260509163316 | 10 | 332 | 8.0 | 9.7 | 0.00 | 0.08 | 0.08 | 56 | 1015.8 |
| 20260509162815 | 10 | 350 | 9.7 | 11.3 | 0.00 | 0.08 | 0.08 | 53 | 1015.9 |
| 20260509162309 | 10 | 325 | 6.4 | 8.0 | 0.00 | 0.08 | 0.08 | 53 | 1016.0 |
| 20260509161805 | 10 | 296 | 11.3 | 12.9 | 0.00 | 0.08 | 0.08 | 53 | 1016.0 |
| 20260509161301 | 10 | 286 | 9.7 | 11.3 | 0.00 | 0.08 | 0.08 | 52 | 1015.8 |
| 20260509160756 | 10 | 290 | 8.0 | 11.3 | 0.00 | 0.08 | 0.08 | 55 | 1015.8 |
| 20260509160253 | 9 | 330 | 8.0 | 9.7 | 0.00 | 0.08 | 0.08 | 56 | 1015.9 |
| 20260509155748 | 9 | 282 | 4.8 | 8.0 | 0.00 | 0.08 | 0.08 | 53 | 1016.0 |
| 20260509155245 | 9 | 38 | 4.8 | 4.8 | 0.00 | 0.08 | 0.08 | 52 | 1015.8 |
| 20260509154741 | 9 | 42 | 8.0 | 8.0 | 0.00 | 0.08 | 0.08 | 57 | 1015.9 |
| 20260509154238 | 8 | 14 | 3.2 | 3.2 | 0.00 | 0.08 | 0.08 | 55 | 1015.9 |
| 20260509153736 | 8 | 0 | 6.4 | 8.0 | 0.00 | 0.08 | 0.08 | 56 | 1015.9 |
| 20260509153231 | 9 | 36 | 4.8 | 8.0 | 0.00 | 0.08 | 0.08 | 56 | 1015.6 |
| 20260509152728 | 8 | 4 | 3.2 | 3.2 | 0.00 | 0.08 | 0.08 | 56 | 1015.7 |
| 20260509152219 | 8 | 352 | 11.3 | 12.9 | 0.00 | 0.08 | 0.08 | 55 | 1015.4 |
| 20260509151716 | 8 | 14 | 4.8 | 4.8 | 0.00 | 0.08 | 0.08 | 54 | 1015.5 |
| 20260509151213 | 8 | 27 | 4.8 | 4.8 | 0.00 | 0.08 | 0.08 | 54 | 1015.8 |
| 20260509150710 | 8 | 54 | 1.6 | 1.6 | 0.00 | 0.08 | 0.08 | 58 | 1015.4 |
| 20260509150209 | 8 | 28 | 6.4 | 8.0 | 0.00 | 0.08 | 0.08 | 61 | 1015.5 |
| 20260509145704 | 7 | 42 | 6.4 | 8.0 | 0.00 | 0.08 | 0.08 | 58 | 1015.4 |
| 20260509145200 | 8 | 28 | 3.2 | 4.8 | 0.00 | 0.08 | 0.08 | 63 | 1015.5 |
| 20260509144656 | 7 | 62 | 1.6 | 3.2 | 0.00 | 0.08 | 0.08 | 64 | 1015.3 |
| 20260509144154 | 7 | 52 | 8.0 | 8.0 | 0.00 | 0.08 | 0.08 | 68 | 1015.2 |
| 20260509143651 | 7 | 315 | 4.8 | 8.0 | 0.00 | 0.08 | 0.08 | 72 | 1015.3 |
| 20260509143149 | 7 | 345 | 9.7 | 12.9 | 0.00 | 0.08 | 0.08 | 75 | 1015.3 |
| 20260509142644 | 7 | 327 | 9.7 | 11.3 | 0.00 | 0.08 | 0.08 | 76 | 1015.2 |
| 20260509142141 | 6 | 14 | 6.4 | 8.0 | 0.00 | 0.08 | 0.08 | 78 | 1015.1 |
| 20260509141636 | 6 | 323 | 4.8 | 4.8 | 0.00 | 0.08 | 0.08 | 76 | 1015.2 |
| 20260509141133 | 6 | 345 | 4.8 | 4.8 | 0.00 | 0.08 | 0.08 | 77 | 1015.0 |
| 20260509140630 | 6 | 11 | 4.8 | 8.0 | 0.00 | 0.08 | 0.08 | 78 | 1015.0 |
| 20260509140128 | 6 | 283 | 1.6 | 1.6 | 0.00 | 0.08 | 0.08 | 83 | 1015.0 |
| 20260509135625 | 6 | 308 | 4.8 | 4.8 | 0.00 | 0.08 | 0.08 | 84 | 1014.9 |
| 20260509135123 | 5 | 16 | 4.8 | 8.0 | 0.00 | 0.08 | 0.08 | 85 | 1014.4 |
| 20260509134619 | 5 | 328 | 3.2 | 3.2 | 0.00 | 0.08 | 0.08 | 86 | 1014.6 |
| 20260509134117 | 5 | 335 | 4.8 | 4.8 | 0.00 | 0.08 | 0.08 | 86 | 1014.6 |
| 20260509133614 | 5 | 342 | 4.8 | 4.8 | 0.00 | 0.08 | 0.08 | 87 | 1014.3 |
| 20260509133111 | 5 | 344 | 4.8 | 4.8 | 0.00 | 0.08 | 0.08 | 87 | 1014.3 |
| 20260509132609 | 5 | 336 | 4.8 | 4.8 | 0.00 | 0.08 | 0.08 | 88 | 1014.2 |
| 20260509132108 | 5 | 312 | 4.8 | 4.8 | 0.00 | 0.08 | 0.08 | 88 | 1014.1 |
| 20260509131603 | 5 | 316 | 4.8 | 4.8 | 0.00 | 0.08 | 0.08 | 88 | 1014.3 |
| 20260509131100 | 4 | 316 | 4.8 | 4.8 | 0.00 | 0.08 | 0.08 | 89 | 1014.2 |
| 20260509130556 | 4 | 310 | 4.8 | 4.8 | 0.00 | 0.08 | 0.08 | 89 | 1013.8 |
| 20260509130053 | 3 | 325 | 4.8 | 4.8 | 0.00 | 0.08 | 0.08 | 89 | 1013.7 |
| 20260509125549 | 3 | 313 | 6.4 | 8.0 | 0.00 | 0.08 | 0.08 | 89 | 1013.6 |
| 20260509125046 | 3 | 313 | 4.8 | 4.8 | 0.00 | 0.08 | 0.08 | 90 | 1013.6 |
| 20260509124542 | 3 | 329 | 3.2 | 3.2 | 0.00 | 0.08 | 0.08 | 90 | 1013.6 |
| 20260509124040 | 2 | 304 | 3.2 | 3.2 | 0.00 | 0.08 | 0.08 | 90 | 1013.5 |
| 20260509123538 | 2 | 289 | 3.2 | 3.2 | 0.00 | 0.08 | 0.08 | 90 | 1013.4 |
| 20260509123034 | 2 | 311 | 3.2 | 3.2 | 0.00 | 0.08 | 0.08 | 90 | 1013.0 |
| 20260509122530 | 2 | 321 | 4.8 | 4.8 | 0.00 | 0.08 | 0.08 | 90 | 1013.3 |
| 20260509122027 | 2 | 327 | 4.8 | 4.8 | 0.00 | 0.08 | 0.08 | 90 | 1012.7 |
| 20260509121524 | 2 | 292 | 3.2 | 3.2 | 0.00 | 0.08 | 0.08 | 90 | 1012.9 |
| 20260509121021 | 2 | 323 | 4.8 | 4.8 | 0.00 | 0.08 | 0.08 | 90 | 1012.9 |
| 20260509120520 | 2 | 309 | 4.8 | 4.8 | 0.00 | 0.08 | 0.08 | 90 | 1012.5 |
| 20260509120017 | 2 | 320 | 4.8 | 4.8 | 0.00 | 0.08 | 0.08 | 90 | 1012.6 |
| 20260509115514 | 2 | 338 | 4.8 | 8.0 | 0.00 | 0.08 | 0.08 | 90 | 1012.3 |
| 20260509115012 | 2 | 338 | 6.4 | 8.0 | 0.00 | 0.08 | 0.08 | 90 | 1012.4 |
| 20260509114510 | 2 | 318 | 8.0 | 11.3 | 0.00 | 0.08 | 0.08 | 91 | 1012.3 |
| 20260509114009 | 2 | 342 | 4.8 | 4.8 | 0.00 | 0.08 | 0.08 | 91 | 1011.9 |
| 20260509113506 | 2 | 313 | 3.2 | 3.2 | 0.00 | 0.08 | 0.08 | 91 | 1011.9 |
| 20260509113004 | 2 | 8 | 4.8 | 4.8 | 0.00 | 0.08 | 0.08 | 91 | 1011.8 |
| 20260509112500 | 2 | 359 | 4.8 | 4.8 | 0.00 | 0.08 | 0.08 | 91 | 1011.9 |
| 20260509111956 | 2 | 8 | 4.8 | 4.8 | 0.00 | 0.08 | 0.08 | 91 | 1011.7 |
| 20260509111454 | 2 | 9 | 6.4 | 8.0 | 0.00 | 0.08 | 0.08 | 91 | 1011.7 |
| 20260509110951 | 2 | 12 | 6.4 | 8.0 | 0.00 | 0.08 | 0.08 | 91 | 1011.6 |
| 20260509110447 | 2 | 8 | 3.2 | 4.8 | 0.00 | 0.08 | 0.08 | 91 | 1011.7 |
| 20260509105945 | 2 | 351 | 4.8 | 4.8 | 0.00 | 0.08 | 0.08 | 90 | 1011.6 |
| 20260509105444 | 2 | 344 | 6.4 | 8.0 | 0.00 | 0.08 | 0.08 | 90 | 1011.3 |
| 20260509104940 | 2 | 5 | 3.2 | 3.2 | 0.00 | 0.08 | 0.08 | 90 | 1011.2 |
| 20260509104437 | 2 | 358 | 4.8 | 8.0 | 0.00 | 0.08 | 0.08 | 90 | 1011.4 |
| 20260509103934 | 3 | 3 | 4.8 | 4.8 | 0.00 | 0.08 | 0.08 | 90 | 1011.3 |
| 20260509103432 | 3 | 8 | 4.8 | 4.8 | 0.00 | 0.08 | 0.08 | 90 | 1011.2 |
| 20260509102930 | 3 | 337 | 4.8 | 4.8 | 0.00 | 0.08 | 0.08 | 90 | 1011.3 |
| 20260509102427 | 3 | 358 | 4.8 | 4.8 | 0.00 | 0.08 | 0.08 | 90 | 1011.2 |
| 20260509101923 | 3 | 19 | 8.0 | 9.7 | 0.00 | 0.08 | 0.08 | 90 | 1011.1 |
| 20260509101420 | 3 | 352 | 6.4 | 8.0 | 0.00 | 0.08 | 0.08 | 90 | 1010.8 |
| 20260509100917 | 3 | 350 | 6.4 | 8.0 | 0.00 | 0.08 | 0.08 | 90 | 1010.9 |
| 20260509100414 | 3 | 13 | 4.8 | 8.0 | 0.00 | 0.08 | 0.08 | 90 | 1010.8 |
| 20260509095911 | 3 | 352 | 4.8 | 8.0 | 0.00 | 0.08 | 0.08 | 90 | 1010.9 |
| 20260509095408 | 3 | 349 | 6.4 | 9.7 | 0.00 | 0.08 | 0.08 | 90 | 1010.9 |
| 20260509094905 | 3 | 357 | 6.4 | 8.0 | 0.00 | 0.08 | 0.08 | 90 | 1010.7 |
| 20260509094401 | 3 | 21 | 8.0 | 9.7 | 0.00 | 0.08 | 0.08 | 90 | 1010.5 |
| 20260509093859 | 3 | 3 | 6.4 | 8.0 | 0.00 | 0.08 | 0.08 | 90 | 1010.7 |
| 20260509093356 | 3 | 358 | 9.7 | 11.3 | 0.00 | 0.08 | 0.08 | 90 | 1010.5 |
| 20260509092855 | 3 | 331 | 6.4 | 8.0 | 0.00 | 0.08 | 0.08 | 90 | 1010.6 |
| 20260509092352 | 3 | 12 | 8.0 | 9.7 | 0.00 | 0.08 | 0.08 | 90 | 1010.5 |
| 20260509091850 | 3 | 338 | 8.0 | 9.7 | 0.00 | 0.08 | 0.08 | 90 | 1010.4 |
| 20260509091347 | 3 | 323 | 3.2 | 3.2 | 0.00 | 0.08 | 0.08 | 90 | 1010.3 |
| 20260509090844 | 3 | 326 | 3.2 | 3.2 | 0.00 | 0.08 | 0.08 | 90 | 1010.3 |
| 20260509090341 | 3 | 308 | 1.6 | 3.2 | 0.00 | 0.08 | 0.08 | 90 | 1010.5 |
| 20260509085839 | 3 | 296 | 3.2 | 3.2 | 0.00 | 0.08 | 0.08 | 90 | 1010.2 |
| 20260509085335 | 3 | 312 | 1.6 | 3.2 | 0.00 | 0.08 | 0.08 | 89 | 1010.3 |
| 20260509084832 | 4 | 339 | 4.8 | 4.8 | 0.00 | 0.08 | 0.08 | 89 | 1010.1 |
| 20260509084329 | 4 | 337 | 4.8 | 4.8 | 0.00 | 0.08 | 0.08 | 89 | 1009.9 |
| 20260509083827 | 4 | 344 | 4.8 | 4.8 | 0.00 | 0.08 | 0.08 | 89 | 1009.9 |
| 20260509083323 | 5 | 350 | 6.4 | 8.0 | 0.00 | 0.08 | 0.08 | 89 | 1009.8 |
| 20260509082820 | 5 | 349 | 4.8 | 4.8 | 0.00 | 0.08 | 0.08 | 89 | 1009.6 |
| 20260509082316 | 5 | 353 | 4.8 | 4.8 | 0.00 | 0.08 | 0.08 | 88 | 1009.6 |
| 20260509081814 | 5 | 353 | 6.4 | 8.0 | 0.00 | 0.08 | 0.08 | 88 | 1009.6 |
| 20260509081311 | 5 | 24 | 8.0 | 11.3 | 0.00 | 0.08 | 0.08 | 88 | 1009.4 |
| 20260509080809 | 5 | 8 | 4.8 | 4.8 | 0.00 | 0.08 | 0.08 | 88 | 1009.5 |
| 20260509080306 | 5 | 24 | 4.8 | 4.8 | 0.00 | 0.08 | 0.08 | 88 | 1009.6 |
| 20260509075805 | 5 | 8 | 4.8 | 4.8 | 0.00 | 0.08 | 0.08 | 88 | 1009.5 |
| 20260509075305 | 5 | 14 | 4.8 | 4.8 | 0.00 | 0.08 | 0.08 | 88 | 1009.6 |
| 20260509074759 | 6 | 33 | 3.2 | 3.2 | 0.00 | 0.08 | 0.08 | 88 | 1009.3 |
| 20260509074256 | 6 | 356 | 3.2 | 3.2 | 0.00 | 0.08 | 0.08 | 88 | 1009.4 |
| 20260509073752 | 6 | 27 | 3.2 | 3.2 | 0.00 | 0.08 | 0.08 | 88 | 1009.2 |
| 20260509073249 | 6 | 7 | 3.2 | 3.2 | 0.00 | 0.08 | 0.08 | 88 | 1009.2 |
| 20260509072745 | 7 | 350 | 9.7 | 9.7 | 0.00 | 0.08 | 0.08 | 88 | 1009.0 |
| 20260509072242 | 7 | 350 | 11.3 | 12.9 | 0.00 | 0.08 | 0.08 | 88 | 1008.9 |
| 20260509071739 | 7 | 359 | 11.3 | 14.5 | 0.00 | 0.08 | 0.08 | 89 | 1008.9 |
| 20260509071236 | 7 | 337 | 8.0 | 11.3 | 0.00 | 0.08 | 0.08 | 89 | 1008.9 |
| 20260509070733 | 7 | 314 | 9.7 | 11.3 | 0.00 | 0.08 | 0.08 | 89 | 1008.6 |
| 20260509070229 | 7 | 343 | 8.0 | 9.7 | 0.00 | 0.08 | 0.08 | 90 | 1008.5 |
| 20260509065726 | 7 | 329 | 8.0 | 11.3 | 0.00 | 0.08 | 0.08 | 90 | 1008.8 |
| 20260509065222 | 7 | 19 | 6.4 | 12.9 | 0.00 | 0.08 | 0.08 | 90 | 1008.6 |
| 20260509064718 | 7 | 346 | 6.4 | 9.7 | 0.00 | 0.08 | 0.08 | 91 | 1008.3 |
| 20260509064216 | 7 | 37 | 4.8 | 8.0 | 0.00 | 0.08 | 0.08 | 91 | 1008.4 |
| 20260509063714 | 7 | 344 | 4.8 | 8.0 | 0.00 | 0.08 | 0.08 | 91 | 1008.2 |
| 20260509063209 | 7 | 7 | 3.2 | 3.2 | 0.00 | 0.08 | 0.08 | 92 | 1008.0 |
| 20260509062707 | 7 | 323 | 3.2 | 4.8 | 0.00 | 0.08 | 0.08 | 92 | 1008.2 |
| 20260509062204 | 7 | 302 | 3.2 | 3.2 | 0.00 | 0.08 | 0.08 | 92 | 1008.3 |
| 20260509061701 | 7 | 324 | 1.6 | 1.6 | 0.00 | 0.08 | 0.08 | 92 | 1008.3 |
| 20260509061158 | 7 | 347 | 0.0 | 1.6 | 0.00 | 0.08 | 0.08 | 91 | 1008.1 |
| 20260509060656 | 7 | 13 | 1.6 | 1.6 | 0.00 | 0.08 | 0.08 | 91 | 1008.1 |
| 20260509060152 | 7 | 329 | 1.6 | 3.2 | 0.00 | 0.08 | 0.08 | 91 | 1008.2 |
| 20260509055647 | 7 | 278 | 1.6 | 1.6 | 0.00 | 0.08 | 0.08 | 91 | 1008.0 |
| 20260509055144 | 7 | 212 | 1.6 | 3.2 | 0.00 | 0.08 | 0.08 | 91 | 1008.1 |
| 20260509054640 | 7 | 288 | 4.8 | 4.8 | 0.00 | 0.08 | 0.08 | 91 | 1008.3 |